SCP
1 1 1 1 1 0 0 0 0 0 0 0 0 0 0 0 0 0 0 0 0 0 0 0 0 0 0 0 0 0 0 0 0 0 0 0 0 0 0 0 0 0 0
1 1 1 1 1 0 0 0 0 0 0 0 0 0 0 0 0 0 0 0 0 0 0 0 0 0 0 0 0 0 0 0 0 0 0 0 0 0 0 0 0 0 0
1 1 1 1 1 1 0 0 0 0 0 0 0 0 0 0 0 0 0 0 0 0 0 0 0 0 0 0 0 0 0 0 0 0 0 -0 0 0 0 0 0 0 0
1 1 1 1 1 1 0 0 0 0 0 0 0 0 0 0 0 0 0 0 0 0 0 0 0 0 0 0 -0 -0 0 0 0 0 0 -0 0 0 0 0 0 0 0
1 1 1 1 1 1 0 0 0 0 0 0 0 0 0 0 0 0 0 0 0 0 0 0 0 0 0 0 -0 -0 0 0 0 0 0 0 0 0 0 0 0 0 0
1 1 1 1 1 1 0 0 0 0 0 0 0 0 0 0 0 0 0 0 0 0 0 0 0 0 0 0 0 0 0 0 0 0 0 0 0 0 0 0 0 0 0
2 1 1 1 1 1 0 0 0 0 0 0 0 0 0 0 0 0 0 0 0 0 0 0 0 0 0 -0 0 0 0 0 0 0 -0 0 0 0 0 0 0 0 0
2 1 1 1 1 1 0 0 0 0 0 0 0 0 0 0 0 0 0 0 0 0 0 0 -0 -0 -0 -0 -0 0 0 0 0 -0 -0 0 0 0 0 0 0 0 0
1 1 1 1 1 0 0 0 0 0 0 0 0 0 0 0 0 0 0 0 0 0 -0 -0 -0 -0 -0 -0 -0 -0 -0 -0 0 -0 -0 0 0 0 0 0 0 0 0
1 1 1 1 1 0 0 0 0 0 0 0 0 0 0 0 0 0 0 0 0 -0 -0 -0 -0 -0 -0 -0 -0 -0 -0 -0 0 -0 -0 0 0 0 0 0 0 0 0
1 1 1 1 0 0 0 0 0 0 0 0 0 0 0 0 0 0 -0 -0 -0 -0 -0 -0 -0 -0 -0 -0 -0 -0 0 0 0 -0 -0 -0 0 0 0 0 0 0 0
1 1 1 1 0 0 0 0 0 0 0 0 0 0 0 0 0 -0 -0 -0 -0 -0 -0 -0 0 0 0 0 0 0 0 0 0 -0 -0 -0 0 0 0 0 0 0 0
1 1 1 1 0 0 0 0 0 0 0 0 0 0 0 0 0 -0 -0 -0 -0 -0 -0 -0 0 0 0 0 0 0 0 0 -0 -0 -0 -0 0 0 0 0 0 0 0
1 1 1 1 0 0 0 0 0 0 0 0 -0 0 0 0 0 0 0 0 0 0 0 0 -0 -0 -0 -0 -0 -0 -0 -0 -0 -0 0 0 0 0 0 0 0 0 0
1 1 1 1 0 0 0 0 0 0 0 0 -0 -0 0 0 0 0 0 0 0 0 0 0 0 0 -0 -0 0 0 -0 -0 -0 -0 0 0 0 0 0 0 0 0 0
1 1 1 1 0 0 0 0 0 0 0 0 -0 -0 0 0 0 0 0 0 0 0 0 0 0 0 0 0 0 0 0 -0 -0 0 0 0 0 0 0 0 0 0 0
1 1 1 1 1 0 0 0 0 0 0 0 0 0 0 0 0 0 0 0 0 0 0 0 0 0 0 0 0 0 0 0 0 0 0 0 0 0 0 0 0 0 0
1 1 1 1 1 0 0 0 0 0 0 0 0 0 0 0 0 0 0 0 0 0 0 0 0 0 0 0 0 0 0 0 0 0 0 0 0 0 0 0 0 0 0
1 1 1 1 1 0 0 0 0 0 0 0 0 0 0 0 0 0 0 0 0 0 0 0 0 0 0 0 0 0 0 0 0 0 0 0 0 0 0 0 0 0 0
1 1 1 1 1 1 0 0 0 0 0 0 0 0 0 0 0 0 0 0 0 0 0 0 0 0 0 0 0 0 0 0 0 0 0 0 0 0 0 0 0 0 0
1 1 1 1 1 1 1 0 0 0 0 0 0 0 0 0 0 0 0 0 0 0 0 0 0 0 0 0 0 0 0 0 0 0 0 0 0 0 0 0 0 0 0
1 1 1 1 1 1 1 1 1 0 0 0 0 0 0 0 0 0 0 0 0 0 0 0 0 0 0 0 0 0 0 0 0 0 0 0 0 0 0 0 0 0 0
0 0 1 1 1 1 1 1 1 0 0 0 0 0 0 0 0 0 0 0 0 0 0 0 0 0 0 0 0 0 0 0 0 0 0 0 0 0 0 0 0 0 0
0 0 0 1 1 1 1 1 1 1 0 0 0 0 0 0 0 0 0 0 0 0 0 0 0 0 0 0 0 0 0 0 0 0 0 0 0 0 0 0 0 0 0
0 0 0 0 1 1 1 1 1 1 1 0 0 0 0 0 0 0 0 0 0 0 0 0 0 0 0 0 0 0 0 0 0 0 0 0 0 0 0 0 0 0 0
0 0 0 0 0 1 1 1 1 1 1 0 0 0 0 0 0 0 0 0 0 0 0 0 0 0 0 0 0 0 0 0 0 0 0 0 0 0 0 0 0 0 0
Wind_Speed
9 12 19 20 19 18 17 17 17 16 16 17 18 18 18 18 18 18 18 18 18 18 19 19 18 18 18 18 17 17 17 17 17 17 16 15 16 16 17 16 14 10 17
13 14 20 20 19 18 17 17 16 16 16 17 17 18 18 18 18 18 18 18 18 18 18 18 18 18 18 17 17 17 16 16 16 15 14 11 13 15 16 16 15 11 16
16 15 18 20 19 19 18 17 16 16 16 17 17 17 18 18 18 18 18 18 18 18 18 18 17 17 16 16 15 15 15 15 14 14 12 6 8 15 15 15 15 15 15
16 14 15 20 20 19 18 17 17 16 16 16 17 17 17 18 18 18 18 18 18 17 17 17 16 15 15 15 14 14 14 14 13 12 6 5 6 13 15 15 15 15 15
14 13 16 20 20 19 18 17 17 16 16 16 17 17 17 18 17 18 17 17 17 17 16 16 15 15 15 14 14 14 14 13 13 9 6 5 5 12 14 14 14 14 14
13 12 16 19 20 19 18 17 17 17 17 16 17 17 17 17 17 17 17 16 16 16 15 15 15 14 14 14 14 14 13 13 9 5 5 5 4 11 13 13 13 13 13
14 12 15 19 19 19 18 17 17 17 17 17 17 17 17 17 17 17 16 15 15 15 15 14 14 14 13 13 13 13 12 11 6 5 4 4 5 11 11 11 11 11 11
13 12 13 18 17 17 17 17 16 16 16 16 17 17 17 17 17 16 16 15 15 15 14 13 13 13 12 12 12 12 10 8 6 5 4 3 6 9 10 10 10 10 10
12 11 10 11 13 15 15 15 15 15 15 15 16 15 15 15 15 15 14 14 14 13 13 12 12 11 11 10 10 9 9 8 4 2 3 2 5 8 8 9 9 9 9
11 10 9 9 9 9 9 13 13 13 13 13 14 13 12 12 12 13 11 12 12 12 11 11 10 10 9 8 8 8 8 6 3 2 1 1 4 6 7 7 7 7 8
12 10 10 9 8 8 8 10 10 11 11 12 11 12 10 6 6 7 8 10 10 10 9 9 9 8 7 7 7 7 5 2 2 1 1 0 2 4 5 5 5 5 6
15 12 9 9 9 8 7 6 5 5 7 6 6 7 5 5 4 5 7 8 8 7 7 7 7 7 5 3 4 4 2 1 1 0 1 2 0 2 2 3 3 3 4
14 13 11 10 9 8 6 6 4 4 4 5 7 6 5 4 3 3 3 4 4 4 3 4 4 2 2 2 1 1 1 1 0 1 2 3 2 1 1 1 1 1 1
13 13 12 11 10 8 7 6 5 4 4 5 6 6 5 4 3 3 2 3 2 2 2 2 1 1 1 1 1 0 0 1 1 1 2 4 4 4 3 2 2 2 1
12 13 13 11 10 9 7 6 6 5 5 6 6 6 6 5 4 4 3 3 2 2 2 2 1 1 0 0 0 1 1 2 2 2 2 4 5 5 5 4 4 3 3
11 12 12 12 11 10 8 7 6 6 5 5 6 6 7 5 5 4 4 3 3 3 2 2 2 1 0 0 1 1 2 2 3 3 2 3 5 6 6 6 5 5 4
11 11 11 12 12 11 9 8 7 6 6 6 6 7 7 6 6 5 4 4 3 3 3 2 1 1 1 1 1 2 2 2 2 3 3 2 3 4 6 7 7 5 4
10 11 11 10 12 12 9 8 6 7 7 6 6 6 7 7 6 5 4 4 4 3 3 2 2 1 1 1 1 2 1 1 2 3 2 2 2 2 3 5 5 5 4
10 11 11 10 12 12 10 7 6 6 7 6 5 6 7 7 7 5 5 4 4 3 3 3 2 2 2 1 2 2 1 1 2 2 2 2 2 1 1 2 2 2 2
9 10 11 10 10 10 8 6 5 6 6 5 5 6 7 7 8 6 4 4 4 4 3 3 3 2 2 1 1 1 1 2 1 1 2 1 1 1 1 1 0 1 1
7 9 11 11 11 9 8 8 7 7 6 5 5 7 8 7 8 7 5 5 5 5 5 4 3 2 2 1 1 1 2 1 1 1 1 1 1 1 1 1 0 0 1
8 9 11 11 11 11 9 7 5 5 4 4 4 6 7 7 7 7 6 5 5 4 4 4 3 2 2 2 2 0 2 3 2 2 1 1 1 1 2 2 2 1 1
6 8 8 10 10 11 10 6 4 3 2 3 5 5 6 7 7 7 7 6 5 5 5 5 4 4 3 2 2 3 2 2 2 1 2 2 2 2 1 2 2 2 2
6 6 7 8 9 9 9 8 9 8 7 7 7 6 6 7 7 7 7 7 6 5 5 5 4 3 4 3 2 2 2 2 1 2 1 1 2 2 2 2 2 2 2
5 5 6 7 8 8 9 10 10 8 6 4 5 7 7 6 6 6 6 6 6 5 5 5 5 4 3 3 3 2 2 1 2 2 3 2 0 0 1 1 1 1 2
3 4 4 6 7 8 9 10 10 10 8 7 7 7 6 4 4 5 5 5 5 4 5 5 5 4 3 3 2 2 2 2 2 3 4 3 2 1 0 0 1 1 1
Wind_Direction
159 156 151 146 140 135 131 128 126 124 124 125 125 124 123 122 121 120 117 114 112 110 109 107 104 101 97 93 89 86 83 79 76 73 72 72 74 74 72 70 66 60 67
147 152 150 146 141 137 134 131 129 128 127 127 127 126 126 124 122 121 119 116 114 113 111 109 105 102 99 95 92 89 85 82 78 73 67 64 71 74 73 71 69 67 67
145 149 148 145 142 139 136 134 132 131 131 130 129 127 126 125 124 122 121 117 116 114 111 107 103 101 99 96 94 91 88 84 79 72 64 51 68 75 74 71 69 68 67
144 146 146 144 143 141 139 137 135 135 134 133 131 129 127 126 124 122 121 119 116 114 110 106 103 102 100 97 96 95 92 88 81 72 55 46 59 75 74 71 69 68 67
142 143 146 145 144 143 142 140 138 137 136 135 133 131 128 126 123 122 120 119 116 113 110 107 105 103 100 98 98 98 95 90 81 68 54 47 52 75 74 71 69 68 67
140 141 147 146 145 144 144 143 140 139 138 137 135 131 129 127 125 123 122 121 118 115 113 109 106 104 102 100 100 100 97 90 76 60 51 46 53 76 76 73 70 68 67
141 143 147 146 146 146 147 146 143 142 141 138 137 134 132 129 128 126 126 126 123 120 116 112 108 106 104 102 102 102 100 92 79 65 53 45 65 77 76 74 71 69 68
143 144 148 147 147 148 149 148 146 145 144 141 139 137 135 133 131 131 131 131 129 125 120 115 111 108 107 106 105 103 99 92 83 71 57 49 77 79 78 76 73 71 69
143 143 144 145 147 148 148 148 147 147 145 143 141 137 136 136 136 136 136 136 133 129 125 120 114 110 108 107 106 103 97 93 84 70 58 51 79 81 80 79 75 72 69
144 145 143 142 143 143 145 147 146 145 144 142 137 132 132 135 137 136 135 136 135 132 128 124 118 112 106 104 105 104 99 87 75 60 38 65 83 84 83 81 78 76 73
154 150 148 145 143 141 145 148 143 143 142 136 132 131 128 125 126 128 134 136 136 136 133 128 120 109 96 90 95 98 93 86 82 58 359 100 94 89 86 84 82 80 78
163 160 155 152 149 146 150 141 138 137 136 131 133 131 126 125 128 131 137 138 136 133 129 125 113 101 88 76 78 82 83 99 94 252 262 264 157 110 99 96 93 88 85
165 163 162 159 154 151 145 143 138 133 134 134 138 137 132 127 125 123 127 129 124 119 106 100 86 82 88 88 77 79 108 138 216 258 263 264 257 226 180 147 143 132 115
168 167 165 162 158 155 150 151 147 146 147 150 151 148 144 142 142 144 141 137 131 121 121 107 100 91 85 85 100 120 199 223 235 248 262 265 263 256 250 247 238 228 208
173 171 169 165 163 159 154 157 159 159 161 161 159 160 158 157 161 159 157 154 152 146 148 147 140 128 81 36 184 206 243 250 249 245 265 271 268 265 262 260 258 253 245
177 175 171 170 167 164 164 164 165 166 165 165 170 172 169 167 167 167 168 171 173 170 167 165 170 169 205 268 276 254 245 245 245 244 244 265 267 267 268 266 267 265 255
182 177 176 176 170 170 172 173 170 170 170 176 179 177 177 174 174 173 175 183 186 176 169 162 167 159 211 240 266 264 249 246 251 253 250 247 261 266 265 265 266 267 265
183 180 180 181 177 176 178 177 173 174 177 183 181 180 183 183 179 175 180 191 184 170 167 169 168 172 209 229 258 273 271 273 273 266 260 253 249 256 266 268 271 274 276
190 184 181 183 183 182 181 179 177 176 182 184 181 182 187 187 183 180 187 187 170 166 171 174 167 173 194 223 245 267 279 274 277 281 273 266 254 247 243 275 282 290 294
193 189 187 185 188 183 178 175 175 179 183 181 184 189 188 189 186 184 186 181 169 168 174 174 176 178 186 201 240 286 283 271 272 275 277 284 280 262 251 259 323 358 359
193 192 190 188 189 184 180 182 185 190 185 182 187 191 191 191 189 187 188 179 177 183 186 176 166 174 187 156 127 321 312 294 306 315 326 337 354 4 44 50 86 80 15
196 193 193 192 191 193 191 186 180 173 178 179 182 190 191 190 189 191 189 186 181 181 180 176 167 163 174 162 154 162 321 330 359 24 36 45 30 42 49 47 64 66 62
208 203 197 193 195 197 191 173 159 145 136 167 188 193 195 194 193 189 186 183 183 182 186 184 178 177 184 186 179 172 191 255 304 328 38 45 40 46 35 40 50 52 60
211 208 204 199 200 196 187 181 183 186 192 196 190 188 189 192 192 190 185 183 182 181 181 182 181 181 174 189 195 208 205 185 219 296 310 45 50 45 32 38 35 37 47
207 201 201 200 204 199 192 190 194 200 201 185 173 177 182 185 188 189 186 182 183 182 181 176 173 179 179 181 182 175 192 210 209 226 271 270 288 72 42 36 44 40 40
203 195 192 197 204 199 193 194 195 198 193 178 180 182 181 178 181 186 183 181 180 179 180 176 172 172 180 181 180 176 175 192 205 211 244 249 249 215 118 48 59 57 49